Volver al catálogo

CSG-2

ActivoCienciaSSO
NORAD 51444·PAYLOAD·🇮🇹 Italy

Lanzado Jan 31, 2022 desde Cape Canaveral Space Force Station

Loading…

Próximos Pases (próximas 24 horas)

TLE

ActualizadoSource: Space-Track

Época: Sep 14, 2026, 14:29 UTC

1 51444U 22008A   26257.60409363  .00000434  00000-0  61078-4 0  9990
2 51444  97.8904  79.9263 0001383  82.5156 277.6214 14.82152594249831

Sigue CSG-2 en tiempo real con AllMySat

Download on the App Store